EW9960 Weather Reports


Display with metric or nautical units.
time (UTC)temp
F
wind
direction
speed
MPH
gust
MPH
rain 1hr
in
rain 24hr
in
rain mn
in
humidity
%
barometer
mb
20260504081603 58 63 0.0 0.0 0.00 0.00 0.00 75 1012.1
20260504044552 60 175 0.0 2.0 0.00 0.00 0.00 65 1011.3
20260504043016 59 205 0.0 4.0 0.00 0.00 0.00 64 1011.5
20260504041547 59 186 0.0 4.0 0.00 0.00 0.00 62 1011.6
20260504040009 60 204 0.0 2.0 0.00 0.00 0.00 61 1011.8
20260504034550 60 161 0.0 3.0 0.00 0.00 0.00 60 1011.9
20260504033015 60 327 0.0 6.0 0.00 0.00 0.00 59 1012.0
20260504031554 60 245 0.0 4.0 0.00 0.00 0.00 58 1012.1
20260504030019 61 278 0.0 4.0 0.00 0.00 0.00 58 1012.2
20260504024544 61 122 0.0 3.0 0.00 0.00 0.00 57 1012.3
20260504023008 61 166 0.0 6.0 0.00 0.00 0.00 55 1012.5
20260504021515 61 266 0.0 3.0 0.00 0.00 0.00 55 1012.3
20260504020038 61 266 0.0 4.0 0.00 0.00 0.00 55 1012.2
20260504014606 62 252 0.0 2.0 0.00 0.00 0.00 54 1012.2
20260504013034 62 77 0.0 5.0 0.00 0.00 0.00 54 1012.4
20260504011546 62 279 0.0 2.0 0.00 0.00 0.00 52 1012.4
20260504010009 63 260 0.0 3.0 0.00 0.00 0.00 52 1012.4
20260504004538 64 250 0.0 3.0 0.00 0.00 0.00 51 1012.5
20260504003053 65 233 0.0 3.0 0.00 0.00 0.00 50 1012.5
20260504001528 65 204 0.0 3.0 0.00 0.00 0.00 49 1012.7
20260504000051 66 274 0.0 2.0 0.00 0.00 0.00 47 1012.8
20260503234529 67 261 0.0 5.0 0.00 0.00 0.00 44 1012.9
20260503233054 68 186 0.0 8.0 0.00 0.00 0.00 44 1013.0
20260503231527 69 186 2.0 7.0 0.00 0.00 0.00 41 1013.0
20260503230110 70 215 0.0 8.0 0.00 0.00 0.00 41 1012.9
20260503224531 70 162 0.0 7.0 0.00 0.00 0.00 41 1012.9
20260503223113 71 219 1.0 10.0 0.00 0.00 0.00 40 1013.0
20260503223007 71 331 1.0 10.0 0.00 0.00 0.00 39 1013.1
20260503221522 71 216 0.0 10.0 0.00 0.00 0.00 40 1013.3
20260503220047 70 188 1.0 7.0 0.00 0.00 0.00 41 1013.4
20260503214533 70 255 0.0 7.0 0.00 0.00 0.00 44 1013.4
20260503213051 69 220 1.0 7.0 0.00 0.00 0.00 40 1013.5
20260503213002 69 87 1.0 7.0 0.00 0.00 0.00 41 1013.5
20260503211519 70 168 1.0 5.0 0.00 0.00 0.00 42 1013.9
20260503210033 70 196 2.0 9.0 0.00 0.00 0.00 41 1014.3
20260503204543 70 10 1.0 9.0 0.00 0.00 0.00 42 1014.8
20260503203051 69 180 2.0 13.0 0.00 0.00 0.00 42 1015.3
20260503201555 69 66 0.0 11.0 0.00 0.00 0.00 43 1015.5
20260503200009 69 252 0.0 6.0 0.00 0.00 0.00 44 1015.8
20260503194520 70 262 1.0 7.0 0.00 0.09 0.00 46 1016.5
20260503193035 69 247 0.0 5.0 0.00 0.09 0.00 45 1016.9
20260503191554 69 209 0.0 6.0 0.00 0.09 0.00 44 1017.3
20260503190015 68 257 2.0 9.0 0.00 0.09 0.00 44 1017.7
20260503184525 68 291 1.0 7.0 0.00 0.09 0.00 45 1018.2
20260503183056 67 299 1.0 4.0 0.00 0.09 0.00 47 1018.4
20260503181541 67 207 0.0 4.0 0.00 0.09 0.00 49 1018.8
20260503180057 66 174 1.0 4.0 0.00 0.09 0.00 45 1019.2
20260503174520 66 221 0.0 3.0 0.00 0.09 0.00 48 1019.6
20260503173050 65 195 0.0 7.0 0.00 0.09 0.00 48 1019.7
20260503171527 65 293 0.0 4.0 0.00 0.09 0.00 49 1019.8